Regional Weather Roundup
Issued by NWS Cleveland, OH

Home | Current Version | Previous Version | Graphics & Text | Print | Product List | Glossary On
Versions: 1 2 3 4 5 6 7 8 9 10 11 12 13 14 15 16 17 18 19 20 21 22 23 24 25 26 27 28 29 30 31 32 33 34 35 36 37 38 39 40 41 42 43 44 45 46 47 48 49 50
000
ASUS41 KCLE 310510
RWRCLE
OHIO REGIONAL WEATHER ROUNDUP
NATIONAL WEATHER SERVICE WILMINGTON, OH
100 AM EDT SUN AUG 31 2014

NOTE: "FAIR" INDICATES FEW OR NO CLOUDS BELOW 12,000 FEET WITH NO
SIGNIFICANT WEATHER AND/OR OBSTRUCTIONS TO VISIBILITY.

OHZ001>008-015>018-024>027-034-035-043-044-310600-
   NORTHWEST OHIO

CITY           SKY/WX    TMP DP  RH WIND       PRES   REMARKS
DEFIANCE       CLOUDY    75  69  81 SW10      29.97S
FINDLAY        CLOUDY    76  68  76 SW16G23   29.97F
TOLEDO EXPRESS CLOUDY    75  69  81 SW12G21   29.96S
TOLEDO METCALF CLOUDY    76  68  76 SW14      29.97S
LIMA           CLOUDY    75  68  78 S9        30.00S
$$

OHZ009>014-019>023-028>033-038-089-310600-
   NORTHEAST OHIO

CITY           SKY/WX    TMP DP  RH WIND       PRES   REMARKS
CLE-HOPKINS    CLOUDY    77  66  68 S10       30.01S
CLE-LAKEFRONT  CLOUDY    80  66  62 S12       29.97R
CUY CO. ARPT   NOT AVBL
LORAIN-ELYRIA  CLOUDY    80  67  64 SW13      30.00S
ASHTABULA      CLOUDY    77  66  68 SW9       30.01R
AKRON-CANTON   LGT RAIN  77  65  66 SW7       30.04R
WOOSTER        CLOUDY    75  65  70 SW8       30.04R
MANSFIELD      CLOUDY    74  66  76 SW10      30.04S
YOUNGSTOWN     LGT RAIN  75  67  76 SW7       30.04R
$$

OHZ042-051>053-060>062-070>072-077>081-310600-
  SOUTHWEST OHIO

CITY           SKY/WX    TMP DP  RH WIND       PRES   REMARKS
CINC-COVINGTON CLOUDY    71  69  93 S6        30.05S FOG
CINC-LUNKEN    CLOUDY    71  69  93 CALM      30.05F
HAMILTON       CLOUDY    72  69  90 CALM      30.05S
DAYTON         CLOUDY    74  68  81 SW9       30.05S
WRIGHT-PAT AFB CLOUDY    73  69  86 S8        30.03F
DAYTON GENERAL CLOUDY    72  69  90 S8        30.04S
WILMINGTON     CLOUDY    70  67  90 S7        30.06S
$$

OHZ036-037-039>041-045>050-054>059-063>069-073>076-082>088-310600-
  CENTRAL AND SOUTHEAST OHIO

CITY           SKY/WX    TMP DP  RH WIND       PRES   REMARKS
COLUMBUS       LGT RAIN  75  68  78 SW7       30.05R
OSU AIRPORT    HVY RAIN  72  68  87 W8        30.05R FOG
BOLTON FIELD   HVY RAIN  71  69  95 SW8       30.07R
RICKENBACK AFB RAIN      73  66  79 SW6       30.06R
NEWARK         LGT RAIN  72  68  87 CALM      30.05R
MARION         CLOUDY    73  68  84 SW9       30.03S
LANCASTER      LGT RAIN  73  68  84 CALM      30.05S
ZANESVILLE     CLOUDY    74  67  78 CALM      30.06R
NEW PHILLY     CLOUDY    75  68  78 SW5       30.05R
$$



USA.gov is the U.S. government's official web portal to all federal, state and local government web resources and services.